Change the Weather History Date:

Wednesday, March 6, 2013

  Actual Average Record
Temperature  
Mean Temperature 31 °F -  
Max Temperature 34 °F 49 °F 76 °F (1973)
Min Temperature 28 °F 31 °F 8 °F (1960)
Degree Days  
Heating Degree Days 34    
Moisture  
Dew Point 28 °F    
Average Humidity 87    
Maximum Humidity 100    
Minimum Humidity 79    
Precipitation  
Precipitation 0.00 in - - ()
Sea Level Pressure  
Sea Level Pressure 29.97 in    
Wind  
Wind Speed 11 mph (NW)    
Max Wind Speed 16 mph    
Max Gust Speed 28 mph    
Visibility 5 miles    
Events Snow    
Averages and records for this station are not official NWS values.
T = Trace of Precipitation, MM = Missing Value Source: NWS Daily Summary

Daily Weather History Graph

Daily Weather History Graph

Search for Another Location

Airport or City:

Trip Planner

Search our weather history database for the weather conditions in past years. The results will help you decide how hot, cold, wet, or windy it might be!

Date:

Astronomy

Mar. 06, 2013 Rise Set
Actual Time 7:02 AM EST 6:35 PM EST
Civil Twilight 6:35 AM EST 7:02 PM EST
Nautical Twilight 6:04 AM EST 7:33 PM EST
Astronomical Twilight 5:33 AM EST 8:04 PM EST
Moon 3:08 AM EST (3/6) 1:18 PM EST (3/6)
Length of Visible Light 12h 26m
Length of Day
11h 33m
Waning Crescent, 30% of the Moon is Illuminated
Mar 6
Waning Crescent
Mar 11
New
Mar 19
First Quarter
Mar 27
Full
Apr 3
Last Quarter

Hourly Weather History & Observations

Time (EST) Temp. Windchill Dew Point Humidity Pressure Visibility Wind Dir Wind Speed Gust Speed Precip Events Conditions
12:09 AM 30.2 °F 19.3 °F 30.2 °F 100% 29.67 in 1.2 mi West 15.0 mph - 0.00 in Snow Light Snow
12:53 AM 30.9 °F 20.7 °F 30.0 °F 96% 29.69 in 1.2 mi West 13.8 mph 23.0 mph 0.00 in Snow Light Snow
1:14 AM 30.2 °F 19.3 °F 30.2 °F 100% 29.69 in 1.0 mi West 15.0 mph 21.9 mph 0.00 in Snow Light Snow
1:35 AM 30.2 °F 20.8 °F 30.2 °F 100% 29.69 in 1.2 mi West 11.5 mph - 0.00 in Snow Light Snow
1:53 AM 30.9 °F 20.7 °F 28.9 °F 92% 29.71 in 1.0 mi West 13.8 mph - 0.00 in Snow Light Snow
2:53 AM 30.0 °F 20.0 °F 28.0 °F 92% 29.73 in 1.2 mi West 12.7 mph 19.6 mph 0.00 in Snow Light Snow
3:25 AM 30.2 °F 22.6 °F 28.4 °F 93% 29.73 in 3.0 mi WNW 8.1 mph - 0.00 in Snow Light Snow
3:32 AM 30.2 °F 21.3 °F 28.4 °F 93% 29.73 in 2.5 mi WNW 10.4 mph - 0.00 in Snow Light Snow
3:53 AM 30.0 °F 23.2 °F 28.0 °F 92% 29.75 in 3.0 mi WNW 6.9 mph 18.4 mph 0.00 in Snow Light Snow
4:24 AM 30.2 °F 21.9 °F 28.4 °F 93% 29.75 in 1.8 mi WNW 9.2 mph - 0.00 in Snow Light Snow
4:53 AM 30.0 °F 21.7 °F 28.0 °F 92% 29.79 in 2.0 mi NW 9.2 mph - 0.00 in Snow Light Snow
5:16 AM 30.2 °F 20.2 °F 28.4 °F 93% 29.79 in 3.0 mi NW 12.7 mph 21.9 mph 0.00 in Snow Light Snow
5:25 AM 30.2 °F 23.4 °F 26.6 °F 86% 29.80 in 2.5 mi NNW 6.9 mph 18.4 mph 0.00 in Snow Light Snow
5:35 AM 30.2 °F 19.8 °F 26.6 °F 86% 29.81 in 3.0 mi NW 13.8 mph 24.2 mph 0.00 in Snow Light Snow
5:42 AM 30.2 °F 20.8 °F 26.6 °F 86% 29.82 in 1.8 mi NNW 11.5 mph 19.6 mph 0.00 in Snow Light Snow
5:53 AM 30.0 °F 20.0 °F 27.0 °F 88% 29.84 in 2.5 mi NW 12.7 mph - 0.00 in Snow Light Snow
6:00 AM 30.2 °F 18.9 °F 26.6 °F 86% 29.83 in 4.0 mi NNW 16.1 mph 23.0 mph 0.00 in Snow Light Snow
6:45 AM 30.2 °F 20.8 °F 26.6 °F 86% 29.87 in 2.0 mi NNW 11.5 mph 18.4 mph 0.00 in Snow Light Snow
6:53 AM 30.0 °F 20.0 °F 27.0 °F 88% 29.89 in 1.8 mi NNW 12.7 mph 27.6 mph 0.00 in Snow Light Snow
6:58 AM 28.4 °F 19.1 °F 26.6 °F 93% 29.89 in 2.0 mi NW 10.4 mph 27.6 mph 0.00 in Snow Light Snow
7:09 AM 30.2 °F 20.2 °F 26.6 °F 86% 29.89 in 6.0 mi NNW 12.7 mph 21.9 mph 0.00 in Snow Light Snow
7:53 AM 30.0 °F 19.5 °F 26.1 °F 85% 29.95 in 6.0 mi NNW 13.8 mph 19.6 mph 0.00 in   Overcast
8:53 AM 30.0 °F 19.1 °F 26.1 °F 85% 30.01 in 6.0 mi NW 15.0 mph 20.7 mph N/A   Overcast
9:53 AM 30.0 °F 19.1 °F 26.1 °F 85% 30.06 in 6.0 mi NNW 15.0 mph 20.7 mph N/A   Overcast
10:53 AM 30.9 °F 21.7 °F 26.1 °F 82% 30.10 in 7.0 mi NNW 11.5 mph 19.6 mph N/A   Overcast
11:53 AM 30.9 °F 21.7 °F 27.0 °F 85% 30.13 in 8.0 mi NNW 11.5 mph - N/A   Overcast
12:53 PM 32.0 °F 25.6 °F 27.0 °F 82% 30.16 in 9.0 mi NNW 6.9 mph 17.3 mph N/A   Overcast
1:53 PM 33.1 °F 27.7 °F 28.0 °F 82% 30.16 in 9.0 mi Variable 5.8 mph - N/A   Overcast
2:53 PM 34.0 °F 25.5 °F 28.0 °F 79% 30.17 in 10.0 mi NW 11.5 mph 16.1 mph N/A   Overcast
3:53 PM 33.1 °F 26.9 °F 28.0 °F 82% 30.19 in 9.0 mi Variable 6.9 mph - N/A   Overcast
4:53 PM 34.0 °F 28.8 °F 28.0 °F 79% 30.21 in 9.0 mi NW 5.8 mph - N/A   Overcast
5:53 PM 33.1 °F 27.7 °F 28.0 °F 82% 30.24 in 9.0 mi WNW 5.8 mph - N/A   Overcast
6:53 PM 33.1 °F 27.7 °F 28.0 °F 82% 30.26 in 10.0 mi WNW 5.8 mph - N/A   Overcast
7:53 PM 33.1 °F 30.0 °F 28.0 °F 82% 30.27 in 10.0 mi Variable 3.5 mph - N/A   Overcast
8:53 PM 33.1 °F - 28.0 °F 82% 30.28 in 10.0 mi Calm Calm - N/A   Overcast
9:33 PM 33.8 °F 30.8 °F 28.4 °F 81% 30.27 in 10.0 mi West 3.5 mph - N/A   Overcast
9:53 PM 33.1 °F 26.9 °F 28.0 °F 82% 30.29 in 10.0 mi West 6.9 mph - N/A   Overcast
10:53 PM 33.1 °F 27.7 °F 28.0 °F 82% 30.30 in 10.0 mi WNW 5.8 mph - N/A   Overcast
11:53 PM 33.1 °F 30.0 °F 28.0 °F 82% 30.28 in 10.0 mi NW 3.5 mph - N/A   Overcast